This is the latest recevied weather packets stored in our database for station/object VK4RM-13. If no packets are shown the sender has not sent any weather packets the latest 1 day(s).
| Time | Temp. | Humidity | Pressure | Rain* | Wind** | Luminosity | Snow |
|---|---|---|---|---|---|---|---|
| 1778027796 | 25.56° C | 72% | 995.7 hPa | 0 mm | 0.89 m/s, 346° | - | - |
| 1778027196 | 25° C | 74% | 995.9 hPa | 0 mm | 0.45 m/s, 323° | - | - |
| 1778026596 | 25° C | 74% | 995.9 hPa | 0 mm | 0.89 m/s, 252° | - | - |
| 1778025996 | 25° C | 74% | 995.8 hPa | 0 mm | 0.45 m/s, 36° | - | - |
| 1778025396 | 25° C | 74% | 996 hPa | 0 mm | 0.45 m/s, 323° | - | - |
| 1778024796 | 25° C | 75% | 995.8 hPa | 0 mm | 0.45 m/s, 11° | - | - |
| 1778024197 | 24.44° C | 75% | 995.9 hPa | 0 mm | 0.89 m/s, 19° | - | - |
| 1778023596 | 24.44° C | 75% | 996 hPa | 0 mm | 0 m/s | - | - |
| 1778022996 | 23.89° C | 77% | 995.9 hPa | 0 mm | 0 m/s | - | - |
| 1778022396 | 23.89° C | 78% | 995.8 hPa | 0 mm | 0 m/s | - | - |
| 1778021796 | 23.33° C | 80% | 995.8 hPa | 0 mm | 0 m/s | - | - |
| 1778021196 | 22.78° C | 82% | 995.6 hPa | 0 mm | 0 m/s | - | - |
| 1778020596 | 22.22° C | 82% | 995.6 hPa | 0 mm | 0 m/s | - | - |
| 1778019996 | 22.22° C | 84% | 995.5 hPa | 0 mm | 0 m/s | - | - |
| 1778019396 | 21.67° C | 86% | 995.6 hPa | 0 mm | 0 m/s | - | - |
| 1778018796 | 21.11° C | 88% | 995.6 hPa | 0 mm | 0 m/s | - | - |
| 1778018196 | 20.56° C | 90% | 995.6 hPa | 0 mm | 0 m/s | - | - |
| 1778017596 | 20° C | 93% | 995.6 hPa | 0 mm | 0 m/s | - | - |
| 1778016997 | 20° C | 94% | 995.5 hPa | 0 mm | 0 m/s | - | - |
| 1778016397 | 19.44° C | 93% | 995.4 hPa | 0 mm | 0 m/s | - | - |
| 1778015797 | 19.44° C | 93% | 995.3 hPa | 0 mm | 0 m/s | - | - |
| 1778015197 | 19.44° C | 94% | 995.2 hPa | 0 mm | 0 m/s | - | - |
| 1778014597 | 19.44° C | 94% | 995.1 hPa | 0 mm | 0 m/s | - | - |
| 1778014003 | 18.89° C | 95% | 995 hPa | 0 mm | 0.45 m/s, 36° | - | - |
| 1778013397 | 18.33° C | 95% | 994.9 hPa | 0 mm | 0 m/s | - | - |
* Rain latest hour (hover to see other rain measurements)
** Current wind speed in m/s (hover to see current wind gust speed)